Gauley Below the Meadow [ USA-WVR ]

Edit Gauge

Current Conditions

Reading of "n/a" = frozen gauge or gauge error.
Reading Trend Type Updated
3576 cfs -58 cfs/hr Flow 01h31m

Station Description

AW Gauge ID: 43451
Source: virtual
Station: 6192
Enabled yes
Description:Summersville Gauley + the Meadow.
Calculation:$flow=$gauge[8515]->getValue(GMETRIC_FLOW,120*60)+$gauge[51285]->getValue(GMETRIC_FLOW,60*120);
Data is courtesy of AW's Stream Team program. This data is calculated based on other gauges and information provided by the Stream Team. This data, and any river data, should be used with caution.

Information

Flow

Gauge History

Times listed in GMT 24h, ET and PT hours provided for convenience Graphs in GMT. Readings of "n/a" constitute a frozen gauge or gauge error.
Reading Updated (GMT) Eastern Pacific Comment
3576.39 04/19/2015 14:11:12 Apr 19 10:11 am Apr 19 7:11 am
3633.98 04/19/2015 13:11:28 Apr 19 09:11 am Apr 19 6:11 am
4382.41 04/19/2015 12:11:44 Apr 19 08:11 am Apr 19 5:11 am
4402.41 04/19/2015 11:12:00 Apr 19 07:12 am Apr 19 4:12 am
4370.43 04/19/2015 10:12:16 Apr 19 06:12 am Apr 19 3:12 am
4401.39 04/19/2015 09:12:32 Apr 19 05:12 am Apr 19 2:12 am
4421.39 04/19/2015 08:12:48 Apr 19 04:12 am Apr 19 1:12 am
4431.89 04/19/2015 07:13:04 Apr 19 03:13 am Apr 19 12:13 am
4430.43 04/19/2015 06:11:12 Apr 19 02:11 am Apr 18 11:11 pm
4450.90 04/19/2015 05:11:28 Apr 19 01:11 am Apr 18 10:11 pm
4470.90 04/19/2015 04:11:44 Apr 19 12:11 am Apr 18 9:11 pm
4480.43 04/19/2015 03:12:00 Apr 18 11:12 pm Apr 18 8:12 pm
4490.43 04/19/2015 02:12:16 Apr 18 10:12 pm Apr 18 7:12 pm
4510.43 04/19/2015 01:12:32 Apr 18 09:12 pm Apr 18 6:12 pm
4520.43 04/19/2015 00:12:48 Apr 18 08:12 pm Apr 18 5:12 pm
4530.90 04/18/2015 23:13:04 Apr 18 07:13 pm Apr 18 4:13 pm
4539.52 04/18/2015 22:11:12 Apr 18 06:11 pm Apr 18 3:11 pm
4591.39 04/18/2015 21:11:28 Apr 18 05:11 pm Apr 18 2:11 pm
5662.58 04/18/2015 20:11:44 Apr 18 04:11 pm Apr 18 1:11 pm
5670.71 04/18/2015 19:12:00 Apr 18 03:12 pm Apr 18 12:12 pm
5714.47 04/18/2015 18:12:16 Apr 18 02:12 pm Apr 18 11:12 am
5746.38 04/18/2015 17:12:32 Apr 18 01:12 pm Apr 18 10:12 am
5673.36 04/18/2015 16:12:48 Apr 18 12:12 pm Apr 18 9:12 am
5708.85 04/18/2015 15:13:04 Apr 18 11:13 am Apr 18 8:13 am
5738.85 04/18/2015 14:11:12 Apr 18 10:11 am Apr 18 7:11 am
5818.85 04/18/2015 13:11:28 Apr 18 09:11 am Apr 18 6:11 am
5805.17 04/18/2015 10:12:16 Apr 18 06:12 am Apr 18 3:12 am
5870.71 04/18/2015 09:12:32 Apr 18 05:12 am Apr 18 2:12 am
5916.38 04/18/2015 08:12:48 Apr 18 04:12 am Apr 18 1:12 am
5880.71 04/18/2015 07:13:04 Apr 18 03:13 am Apr 18 12:13 am
5964.47 04/18/2015 06:11:12 Apr 18 02:11 am Apr 17 11:11 pm
5901.56 04/18/2015 05:11:28 Apr 18 01:11 am Apr 17 10:11 pm
5921.56 04/18/2015 04:11:44 Apr 18 12:11 am Apr 17 9:11 pm
6028.85 04/18/2015 03:12:00 Apr 17 11:12 pm Apr 17 8:12 pm
4958.68 04/18/2015 01:12:32 Apr 17 09:12 pm Apr 17 6:12 pm
4927.52 04/18/2015 00:12:48 Apr 17 08:12 pm Apr 17 5:12 pm
4947.52 04/17/2015 23:13:04 Apr 17 07:13 pm Apr 17 4:13 pm
5007.52 04/17/2015 22:11:12 Apr 17 06:11 pm Apr 17 3:11 pm
5058.68 04/17/2015 21:11:28 Apr 17 05:11 pm Apr 17 2:11 pm
5067.89 04/17/2015 20:11:44 Apr 17 04:11 pm Apr 17 1:11 pm
6244.47 04/17/2015 19:12:00 Apr 17 03:12 pm Apr 17 12:12 pm
6264.47 04/17/2015 18:12:16 Apr 17 02:12 pm Apr 17 11:12 am
6344.15 04/17/2015 17:12:32 Apr 17 01:12 pm Apr 17 10:12 am
6444.21 04/17/2015 16:12:48 Apr 17 12:12 pm Apr 17 9:12 am
6360.23 04/17/2015 15:13:04 Apr 17 11:13 am Apr 17 8:13 am
6482.17 04/17/2015 14:11:12 Apr 17 10:11 am Apr 17 7:11 am
6426.38 04/17/2015 13:11:28 Apr 17 09:11 am Apr 17 6:11 am
6578.35 04/17/2015 12:11:44 Apr 17 08:11 am Apr 17 5:11 am
8402.82 04/17/2015 11:12:00 Apr 17 07:12 am Apr 17 4:12 am
8447.21 04/17/2015 10:12:16 Apr 17 06:12 am Apr 17 3:12 am
8462.82 04/17/2015 09:12:32 Apr 17 05:12 am Apr 17 2:12 am
8546.04 04/17/2015 08:12:48 Apr 17 04:12 am Apr 17 1:12 am
8560.49 04/17/2015 07:13:04 Apr 17 03:13 am Apr 17 12:13 am
8524.10 04/17/2015 06:11:12 Apr 17 02:11 am Apr 16 11:11 pm
8621.62 04/17/2015 05:11:28 Apr 17 01:11 am Apr 16 10:11 pm
8622.82 04/17/2015 04:11:44 Apr 17 12:11 am Apr 16 9:11 pm
8716.04 04/17/2015 03:12:00 Apr 16 11:12 pm Apr 16 8:12 pm
8736.04 04/17/2015 02:12:16 Apr 16 10:12 pm Apr 16 7:12 pm
8806.04 04/17/2015 01:12:32 Apr 16 09:12 pm Apr 16 6:12 pm
8806.04 04/16/2015 23:13:04 Apr 16 07:13 pm Apr 16 4:13 pm
8741.15 04/16/2015 22:11:12 Apr 16 06:11 pm Apr 16 3:11 pm
8791.15 04/16/2015 21:11:28 Apr 16 05:11 pm Apr 16 2:11 pm
8404.48 04/16/2015 20:11:44 Apr 16 04:11 pm Apr 16 1:11 pm
8656.97 04/16/2015 19:12:00 Apr 16 03:12 pm Apr 16 12:12 pm
8656.97 04/16/2015 18:12:16 Apr 16 02:12 pm Apr 16 11:12 am
7495.29 04/16/2015 17:12:32 Apr 16 01:12 pm Apr 16 10:12 am
7273.30 04/16/2015 16:12:48 Apr 16 12:12 pm Apr 16 9:12 am
7261.12 04/16/2015 15:13:04 Apr 16 11:13 am Apr 16 8:13 am
8336.52 04/16/2015 14:11:12 Apr 16 10:11 am Apr 16 7:11 am
8252.56 04/16/2015 13:11:28 Apr 16 09:11 am Apr 16 6:11 am
11162.60 04/16/2015 12:11:44 Apr 16 08:11 am Apr 16 5:11 am
12842.00 04/16/2015 11:12:00 Apr 16 07:12 am Apr 16 4:12 am
12910.20 04/16/2015 10:12:16 Apr 16 06:12 am Apr 16 3:12 am
12920.80 04/16/2015 09:12:32 Apr 16 05:12 am Apr 16 2:12 am
12814.70 04/16/2015 08:12:48 Apr 16 04:12 am Apr 16 1:12 am
13106.70 04/16/2015 07:13:04 Apr 16 03:13 am Apr 16 12:13 am
13097.80 04/16/2015 06:11:12 Apr 16 02:11 am Apr 15 11:11 pm
13000.80 04/16/2015 05:11:28 Apr 16 01:11 am Apr 15 10:11 pm
13265.80 04/16/2015 04:11:44 Apr 16 12:11 am Apr 15 9:11 pm
13089.20 04/16/2015 03:12:00 Apr 15 11:12 pm Apr 15 8:12 pm
13129.20 04/16/2015 02:12:16 Apr 15 10:12 pm Apr 15 7:12 pm
13179.20 04/16/2015 01:12:32 Apr 15 09:12 pm Apr 15 6:12 pm
13199.20 04/16/2015 00:12:48 Apr 15 08:12 pm Apr 15 5:12 pm
13121.40 04/15/2015 23:13:04 Apr 15 07:13 pm Apr 15 4:13 pm
13367.10 04/15/2015 22:11:12 Apr 15 06:11 pm Apr 15 3:11 pm
13230.80 04/15/2015 21:11:28 Apr 15 05:11 pm Apr 15 2:11 pm
13349.20 04/15/2015 20:11:44 Apr 15 04:11 pm Apr 15 1:11 pm
13418.70 04/15/2015 19:12:00 Apr 15 03:12 pm Apr 15 12:12 pm
13419.20 04/15/2015 18:12:16 Apr 15 02:12 pm Apr 15 11:12 am
13439.70 04/15/2015 17:12:32 Apr 15 01:12 pm Apr 15 10:12 am
13508.70 04/15/2015 16:12:48 Apr 15 12:12 pm Apr 15 9:12 am
13295.40 04/15/2015 15:13:04 Apr 15 11:13 am Apr 15 8:13 am
13589.70 04/15/2015 14:11:12 Apr 15 10:11 am Apr 15 7:11 am
13602.00 04/15/2015 13:11:28 Apr 15 09:11 am Apr 15 6:11 am
13749.20 04/15/2015 12:11:44 Apr 15 08:11 am Apr 15 5:11 am
13810.20 04/15/2015 11:12:00 Apr 15 07:12 am Apr 15 4:12 am
13908.70 04/15/2015 10:12:16 Apr 15 06:12 am Apr 15 3:12 am
13910.80 04/15/2015 09:12:32 Apr 15 05:12 am Apr 15 2:12 am
13990.20 04/15/2015 08:12:48 Apr 15 04:12 am Apr 15 1:12 am
13990.20 04/15/2015 07:13:04 Apr 15 03:13 am Apr 15 12:13 am
14199.20 04/15/2015 06:11:12 Apr 15 02:11 am Apr 14 11:11 pm
12025.00 04/15/2015 05:11:28 Apr 15 01:11 am Apr 14 10:11 pm
4427.60 04/15/2015 04:11:44 Apr 15 12:11 am Apr 14 9:11 pm
2007.60 04/14/2015 18:12:16 Apr 14 02:12 pm Apr 14 11:12 am
1451.21 04/14/2015 17:12:32 Apr 14 01:12 pm Apr 14 10:12 am
1091.21 04/14/2015 16:12:48 Apr 14 12:12 pm Apr 14 9:12 am
1087.60 04/14/2015 15:13:04 Apr 14 11:13 am Apr 14 8:13 am
974.00 04/14/2015 14:11:12 Apr 14 10:11 am Apr 14 7:11 am
962.00 04/14/2015 13:11:28 Apr 14 09:11 am Apr 14 6:11 am
958.00 04/14/2015 12:11:44 Apr 14 08:11 am Apr 14 5:11 am
954.42 04/14/2015 11:12:00 Apr 14 07:12 am Apr 14 4:12 am
958.00 04/14/2015 10:12:16 Apr 14 06:12 am Apr 14 3:12 am
962.00 04/14/2015 09:12:32 Apr 14 05:12 am Apr 14 2:12 am
962.00 04/14/2015 08:12:48 Apr 14 04:12 am Apr 14 1:12 am
958.42 04/14/2015 07:13:04 Apr 14 03:13 am Apr 14 12:13 am
970.42 04/14/2015 06:11:12 Apr 14 02:11 am Apr 13 11:11 pm
975.42 04/14/2015 05:11:28 Apr 14 01:11 am Apr 13 10:11 pm
987.42 04/14/2015 04:11:44 Apr 14 12:11 am Apr 13 9:11 pm
988.85 04/14/2015 03:12:00 Apr 13 11:12 pm Apr 13 8:12 pm
998.85 04/14/2015 02:12:16 Apr 13 10:12 pm Apr 13 7:12 pm
1005.42 04/14/2015 01:12:32 Apr 13 09:12 pm Apr 13 6:12 pm
1007.42 04/14/2015 00:12:48 Apr 13 08:12 pm Apr 13 5:12 pm
1007.42 04/13/2015 23:13:04 Apr 13 07:13 pm Apr 13 4:13 pm
1021.00 04/13/2015 22:11:12 Apr 13 06:11 pm Apr 13 3:11 pm
1025.42 04/13/2015 21:11:28 Apr 13 05:11 pm Apr 13 2:11 pm
1034.42 04/13/2015 20:11:44 Apr 13 04:11 pm Apr 13 1:11 pm
1039.42 04/13/2015 19:12:00 Apr 13 03:12 pm Apr 13 12:12 pm
1052.42 04/13/2015 18:12:16 Apr 13 02:12 pm Apr 13 11:12 am
1061.00 04/13/2015 17:12:32 Apr 13 01:12 pm Apr 13 10:12 am
1070.00 04/13/2015 16:12:48 Apr 13 12:12 pm Apr 13 9:12 am
1066.42 04/13/2015 15:13:04 Apr 13 11:13 am Apr 13 8:13 am
1085.42 04/13/2015 14:11:12 Apr 13 10:11 am Apr 13 7:11 am
1090.42 04/13/2015 13:11:28 Apr 13 09:11 am Apr 13 6:11 am
1108.00 04/13/2015 12:11:44 Apr 13 08:11 am Apr 13 5:11 am
1118.42 04/13/2015 11:12:00 Apr 13 07:12 am Apr 13 4:12 am
1124.85 04/13/2015 10:12:16 Apr 13 06:12 am Apr 13 3:12 am
1133.42 04/13/2015 09:12:32 Apr 13 05:12 am Apr 13 2:12 am
1143.42 04/13/2015 08:12:48 Apr 13 04:12 am Apr 13 1:12 am
1139.85 04/13/2015 07:13:04 Apr 13 03:13 am Apr 13 12:13 am
1158.85 04/13/2015 06:11:12 Apr 13 02:11 am Apr 12 11:11 pm
1172.42 04/13/2015 05:11:28 Apr 13 01:11 am Apr 12 10:11 pm
1182.42 04/13/2015 04:11:44 Apr 13 12:11 am Apr 12 9:11 pm
1203.42 04/13/2015 03:12:00 Apr 12 11:12 pm Apr 12 8:12 pm
1199.85 04/13/2015 01:12:32 Apr 12 09:12 pm Apr 12 6:12 pm
1209.85 04/13/2015 00:12:48 Apr 12 08:12 pm Apr 12 5:12 pm
1209.85 04/12/2015 23:13:04 Apr 12 07:13 pm Apr 12 4:13 pm
1239.42 04/12/2015 22:11:12 Apr 12 06:11 pm Apr 12 3:11 pm
1244.42 04/12/2015 21:11:28 Apr 12 05:11 pm Apr 12 2:11 pm
1254.42 04/12/2015 20:11:44 Apr 12 04:11 pm Apr 12 1:11 pm
1261.85 04/12/2015 19:12:00 Apr 12 03:12 pm Apr 12 12:12 pm
1270.42 04/12/2015 18:12:16 Apr 12 02:12 pm Apr 12 11:12 am
1280.42 04/12/2015 17:12:32 Apr 12 01:12 pm Apr 12 10:12 am
1290.42 04/12/2015 16:12:48 Apr 12 12:12 pm Apr 12 9:12 am
1294.00 04/12/2015 15:13:04 Apr 12 11:13 am Apr 12 8:13 am
1310.42 04/12/2015 14:11:12 Apr 12 10:11 am Apr 12 7:11 am
1310.42 04/12/2015 13:11:28 Apr 12 09:11 am Apr 12 6:11 am
1330.42 04/12/2015 12:11:44 Apr 12 08:11 am Apr 12 5:11 am
1330.42 04/12/2015 11:12:00 Apr 12 07:12 am Apr 12 4:12 am
1340.42 04/12/2015 10:12:16 Apr 12 06:12 am Apr 12 3:12 am
1350.42 04/12/2015 09:12:32 Apr 12 05:12 am Apr 12 2:12 am
1360.42 04/12/2015 08:12:48 Apr 12 04:12 am Apr 12 1:12 am
1356.85 04/12/2015 07:13:04 Apr 12 03:13 am Apr 12 12:13 am
1380.42 04/12/2015 06:11:12 Apr 12 02:11 am Apr 11 11:11 pm
1390.42 04/12/2015 05:11:28 Apr 12 01:11 am Apr 11 10:11 pm
1396.85 04/12/2015 04:11:44 Apr 12 12:11 am Apr 11 9:11 pm
1406.85 04/12/2015 03:12:00 Apr 11 11:12 pm Apr 11 8:12 pm
1416.85 04/12/2015 02:12:16 Apr 11 10:12 pm Apr 11 7:12 pm
1416.85 04/12/2015 00:12:48 Apr 11 08:12 pm Apr 11 5:12 pm
1426.85 04/11/2015 23:13:04 Apr 11 07:13 pm Apr 11 4:13 pm
1450.42 04/11/2015 22:11:12 Apr 11 06:11 pm Apr 11 3:11 pm
1456.85 04/11/2015 21:11:28 Apr 11 05:11 pm Apr 11 2:11 pm
1460.42 04/11/2015 20:11:44 Apr 11 04:11 pm Apr 11 1:11 pm
1476.85 04/11/2015 19:12:00 Apr 11 03:12 pm Apr 11 12:12 pm
1490.42 04/11/2015 18:12:16 Apr 11 02:12 pm Apr 11 11:12 am
1500.42 04/11/2015 17:12:32 Apr 11 01:12 pm Apr 11 10:12 am
1500.42 04/11/2015 16:12:48 Apr 11 12:12 pm Apr 11 9:12 am
1496.85 04/11/2015 15:13:04 Apr 11 11:13 am Apr 11 8:13 am
1520.42 04/11/2015 14:11:12 Apr 11 10:11 am Apr 11 7:11 am
1530.42 04/11/2015 13:11:28 Apr 11 09:11 am Apr 11 6:11 am
1540.42 04/11/2015 12:11:44 Apr 11 08:11 am Apr 11 5:11 am
1540.42 04/11/2015 11:12:00 Apr 11 07:12 am Apr 11 4:12 am
1546.85 04/11/2015 10:12:16 Apr 11 06:12 am Apr 11 3:12 am
1560.42 04/11/2015 09:12:32 Apr 11 05:12 am Apr 11 2:12 am
1564.00 04/11/2015 08:12:48 Apr 11 04:12 am Apr 11 1:12 am
1564.00 04/11/2015 07:13:04 Apr 11 03:13 am Apr 11 12:13 am
1594.00 04/11/2015 06:11:12 Apr 11 02:11 am Apr 10 11:11 pm
1594.00 04/11/2015 05:11:28 Apr 11 01:11 am Apr 10 10:11 pm
1604.00 04/11/2015 04:11:44 Apr 11 12:11 am Apr 10 9:11 pm
1614.00 04/11/2015 03:12:00 Apr 10 11:12 pm Apr 10 8:12 pm
1614.00 04/11/2015 01:12:32 Apr 10 09:12 pm Apr 10 6:12 pm
1624.00 04/11/2015 00:12:48 Apr 10 08:12 pm Apr 10 5:12 pm
1624.00 04/10/2015 23:13:04 Apr 10 07:13 pm Apr 10 4:13 pm
1640.42 04/10/2015 22:11:12 Apr 10 06:11 pm Apr 10 3:11 pm
1650.42 04/10/2015 21:11:28 Apr 10 05:11 pm Apr 10 2:11 pm
1657.60 04/10/2015 20:11:44 Apr 10 04:11 pm Apr 10 1:11 pm
1654.00 04/10/2015 19:12:00 Apr 10 03:12 pm Apr 10 12:12 pm
1650.42 04/10/2015 18:12:16 Apr 10 02:12 pm Apr 10 11:12 am
1647.60 04/10/2015 17:12:32 Apr 10 01:12 pm Apr 10 10:12 am
1657.60 04/10/2015 16:12:48 Apr 10 12:12 pm Apr 10 9:12 am
1650.42 04/10/2015 15:13:04 Apr 10 11:13 am Apr 10 8:13 am
1650.42 04/10/2015 14:11:12 Apr 10 10:11 am Apr 10 7:11 am
1644.00 04/10/2015 13:11:28 Apr 10 09:11 am Apr 10 6:11 am
1660.42 04/10/2015 12:11:44 Apr 10 08:11 am Apr 10 5:11 am
1664.00 04/10/2015 11:12:00 Apr 10 07:12 am Apr 10 4:12 am
1674.00 04/10/2015 10:12:16 Apr 10 06:12 am Apr 10 3:12 am
1684.00 04/10/2015 09:12:32 Apr 10 05:12 am Apr 10 2:12 am
1680.42 04/10/2015 08:12:48 Apr 10 04:12 am Apr 10 1:12 am
1680.42 04/10/2015 07:13:04 Apr 10 03:13 am Apr 10 12:13 am
1676.85 04/10/2015 06:11:12 Apr 10 02:11 am Apr 9 11:11 pm
1684.00 04/10/2015 05:11:28 Apr 10 01:11 am Apr 9 10:11 pm
1694.00 04/10/2015 04:11:44 Apr 10 12:11 am Apr 9 9:11 pm
1694.00 04/10/2015 03:12:00 Apr 9 11:12 pm Apr 9 8:12 pm
1694.00 04/10/2015 02:12:16 Apr 9 10:12 pm Apr 9 7:12 pm
1694.00 04/10/2015 01:12:32 Apr 9 09:12 pm Apr 9 6:12 pm
1694.00 04/10/2015 00:12:48 Apr 9 08:12 pm Apr 9 5:12 pm
1694.00 04/09/2015 23:13:04 Apr 9 07:13 pm Apr 9 4:13 pm
1680.42 04/09/2015 22:11:12 Apr 9 06:11 pm Apr 9 3:11 pm
1680.42 04/09/2015 21:11:28 Apr 9 05:11 pm Apr 9 2:11 pm
1670.42 04/09/2015 20:11:44 Apr 9 04:11 pm Apr 9 1:11 pm
1654.00 04/09/2015 19:12:00 Apr 9 03:12 pm Apr 9 12:12 pm
1644.00 04/09/2015 18:12:16 Apr 9 02:12 pm Apr 9 11:12 am
1624.00 04/09/2015 17:12:32 Apr 9 01:12 pm Apr 9 10:12 am
1594.00 04/09/2015 16:12:48 Apr 9 12:12 pm Apr 9 9:12 am
1590.42 04/09/2015 15:13:04 Apr 9 11:13 am Apr 9 8:13 am
1547.60 04/09/2015 14:11:12 Apr 9 10:11 am Apr 9 7:11 am
1520.42 04/09/2015 13:11:28 Apr 9 09:11 am Apr 9 6:11 am
1500.42 04/09/2015 12:11:44 Apr 9 08:11 am Apr 9 5:11 am
1464.00 04/09/2015 11:12:00 Apr 9 07:12 am Apr 9 4:12 am
1440.42 04/09/2015 10:12:16 Apr 9 06:12 am Apr 9 3:12 am
1430.42 04/09/2015 09:12:32 Apr 9 05:12 am Apr 9 2:12 am
1416.85 04/09/2015 08:12:48 Apr 9 04:12 am Apr 9 1:12 am
1420.42 04/09/2015 07:13:04 Apr 9 03:13 am Apr 9 12:13 am
1420.42 04/09/2015 06:11:12 Apr 9 02:11 am Apr 8 11:11 pm
1420.42 04/09/2015 05:11:28 Apr 9 01:11 am Apr 8 10:11 pm
1424.00 04/09/2015 04:11:44 Apr 9 12:11 am Apr 8 9:11 pm
1424.00 04/09/2015 03:12:00 Apr 8 11:12 pm Apr 8 8:12 pm
1399.22 04/09/2015 01:12:32 Apr 8 09:12 pm Apr 8 6:12 pm
1399.22 04/09/2015 00:12:48 Apr 8 08:12 pm Apr 8 5:12 pm
1399.22 04/08/2015 23:13:04 Apr 8 07:13 pm Apr 8 4:13 pm
1409.22 04/08/2015 22:11:12 Apr 8 06:11 pm Apr 8 3:11 pm
1409.22 04/08/2015 21:11:28 Apr 8 05:11 pm Apr 8 2:11 pm
1399.22 04/08/2015 20:11:44 Apr 8 04:11 pm Apr 8 1:11 pm
1399.22 04/08/2015 19:12:00 Apr 8 03:12 pm Apr 8 12:12 pm
1409.22 04/08/2015 18:12:16 Apr 8 02:12 pm Apr 8 11:12 am
1419.22 04/08/2015 17:12:32 Apr 8 01:12 pm Apr 8 10:12 am
1415.73 04/08/2015 16:12:48 Apr 8 12:12 pm Apr 8 9:12 am
1419.22 04/08/2015 15:13:04 Apr 8 11:13 am Apr 8 8:13 am
1439.22 04/08/2015 14:11:12 Apr 8 10:11 am Apr 8 7:11 am
1439.22 04/08/2015 13:11:28 Apr 8 09:11 am Apr 8 6:11 am
1459.22 04/08/2015 12:11:44 Apr 8 08:11 am Apr 8 5:11 am
1469.22 04/08/2015 11:12:00 Apr 8 07:12 am Apr 8 4:12 am
1475.73 04/08/2015 10:12:16 Apr 8 06:12 am Apr 8 3:12 am
1485.73 04/08/2015 09:12:32 Apr 8 05:12 am Apr 8 2:12 am
1485.73 04/08/2015 08:12:48 Apr 8 04:12 am Apr 8 1:12 am
1492.72 04/08/2015 07:13:04 Apr 8 03:13 am Apr 8 12:13 am
1505.73 04/08/2015 06:11:12 Apr 8 02:11 am Apr 7 11:11 pm
1525.73 04/08/2015 05:11:28 Apr 8 01:11 am Apr 7 10:11 pm
1539.22 04/08/2015 04:11:44 Apr 8 12:11 am Apr 7 9:11 pm
1555.73 04/08/2015 03:12:00 Apr 7 11:12 pm Apr 7 8:12 pm
1555.73 04/08/2015 01:12:32 Apr 7 09:12 pm Apr 7 6:12 pm
1575.73 04/08/2015 00:12:48 Apr 7 08:12 pm Apr 7 5:12 pm
1575.73 04/07/2015 23:13:04 Apr 7 07:13 pm Apr 7 4:13 pm
1575.73 04/07/2015 22:11:12 Apr 7 06:11 pm Apr 7 3:11 pm
1575.73 04/07/2015 21:11:28 Apr 7 05:11 pm Apr 7 2:11 pm
1589.22 04/07/2015 20:11:44 Apr 7 04:11 pm Apr 7 1:11 pm
1579.22 04/07/2015 19:12:00 Apr 7 03:12 pm Apr 7 12:12 pm
1575.73 04/07/2015 18:12:16 Apr 7 02:12 pm Apr 7 11:12 am
1585.73 04/07/2015 17:12:32 Apr 7 01:12 pm Apr 7 10:12 am
1579.22 04/07/2015 16:12:48 Apr 7 12:12 pm Apr 7 9:12 am
1579.22 04/07/2015 15:13:04 Apr 7 11:13 am Apr 7 8:13 am
1629.22 04/07/2015 14:11:12 Apr 7 10:11 am Apr 7 7:11 am
1649.22 04/07/2015 13:11:28 Apr 7 09:11 am Apr 7 6:11 am
1659.22 04/07/2015 12:11:44 Apr 7 08:11 am Apr 7 5:11 am
1685.73 04/07/2015 11:12:00 Apr 7 07:12 am Apr 7 4:12 am
1719.22 04/07/2015 10:12:16 Apr 7 06:12 am Apr 7 3:12 am
1732.26 04/07/2015 09:12:32 Apr 7 05:12 am Apr 7 2:12 am
1765.73 04/07/2015 08:12:48 Apr 7 04:12 am Apr 7 1:12 am
1765.73 04/07/2015 07:13:04 Apr 7 03:13 am Apr 7 12:13 am
1802.26 04/07/2015 06:11:12 Apr 7 02:11 am Apr 6 11:11 pm
1849.22 04/07/2015 05:11:28 Apr 7 01:11 am Apr 6 10:11 pm
1875.73 04/07/2015 04:11:44 Apr 7 12:11 am Apr 6 9:11 pm
1905.73 04/07/2015 03:12:00 Apr 6 11:12 pm Apr 6 8:12 pm
1935.73 04/07/2015 02:12:16 Apr 6 10:12 pm Apr 6 7:12 pm
1955.73 04/07/2015 01:12:32 Apr 6 09:12 pm Apr 6 6:12 pm
1995.73 04/07/2015 00:12:48 Apr 6 08:12 pm Apr 6 5:12 pm
1995.73 04/06/2015 23:13:04 Apr 6 07:13 pm Apr 6 4:13 pm
2055.73 04/06/2015 22:11:12 Apr 6 06:11 pm Apr 6 3:11 pm
2079.22 04/06/2015 21:11:28 Apr 6 05:11 pm Apr 6 2:11 pm
2119.22 04/06/2015 20:11:44 Apr 6 04:11 pm Apr 6 1:11 pm
2155.73 04/06/2015 19:12:00 Apr 6 03:12 pm Apr 6 12:12 pm
2175.73 04/06/2015 18:12:16 Apr 6 02:12 pm Apr 6 11:12 am
2215.73 04/06/2015 17:12:32 Apr 6 01:12 pm Apr 6 10:12 am
2239.22 04/06/2015 16:12:48 Apr 6 12:12 pm Apr 6 9:12 am
2235.73 04/06/2015 15:13:04 Apr 6 11:13 am Apr 6 8:13 am
2302.26 04/06/2015 14:11:12 Apr 6 10:11 am Apr 6 7:11 am
2345.73 04/06/2015 13:11:28 Apr 6 09:11 am Apr 6 6:11 am
2375.73 04/06/2015 12:11:44 Apr 6 08:11 am Apr 6 5:11 am
2425.73 04/06/2015 11:12:00 Apr 6 07:12 am Apr 6 4:12 am
2442.26 04/06/2015 10:12:16 Apr 6 06:12 am Apr 6 3:12 am
2482.26 04/06/2015 09:12:32 Apr 6 05:12 am Apr 6 2:12 am

Report - Reports of Related Gauges

Reports give the public a chance to report on river conditions throughout the country as well as log the history of a river.

Reports

When River/Gauge Subject Level Reporter
5y329d03h38m Gauley Below the Meadow [WV] Account of 05/26/09 600 cfs Ryan Groth

Linked Reaches

Click a heading to sort. Hover over a heading for help.
River Name/Section Class Level running? Updated
Gauley [WV] 8 (Middle). Mason Branch to Bucklick Branch III+(IV) 3576 cfs
-58 cfs/hr
R6-
Runnable
01h31m
Gauley [WV] 9 (Lower). Bucklick Branch to Swiss III-IV(V) 4990 cfs
-20 cfs/hr
R4-
Runnable
00h44m

Associated Gauges

Disclaimer Data Sources

Gauley at Summersville (cfs) (AW#8515)

2506 cfs 01h16m

MEADOW RIVER AT NALLEN, WV (AW#51285)

1060 cfs 00h29m

MEADOW RIVER AT NALLEN, WV (AW#51285)

6.72 ft 00h29m